Santa Monica, CA

1:24 AM PDT on August 21, 2018 (GMT -0700)
Santa Monica Municipal

Weather History for KSMO - June, 2018

Change the Weather History Date:

Thursday, June 14, 2018

  Actual Average Record
Temperature  
Mean Temperature 67 °F -  
Max Temperature 77 °F 76 °F 94 °F (1981)
Min Temperature 59 °F 59 °F 45 °F (1977)
Cooling Degree Days 2    
Growing Degree Days 17 (Base 50)    
Moisture  
Dew Point 58 °F    
Average Humidity 82    
Maximum Humidity 93    
Minimum Humidity 55    
Precipitation  
Precipitation 0.00 in - - ()
Sea Level Pressure  
Sea Level Pressure 29.82 in    
Wind  
Wind Speed 5 mph (SW)    
Max Wind Speed 15 mph    
Max Gust Speed 21 mph    
Visibility 8 miles    
Events      
Averages and records for this station are not official NWS values.
T = Trace of Precipitation, MM = Missing Value Source: NWS Daily Summary

Daily Weather History Graph

Daily Weather History Graph

Search for Another Location

Airport or City:

Astronomy

Jun. 14, 2018 Rise Set
Actual Time 5:41 AM PDT 8:06 PM PDT
Civil Twilight 5:12 AM PDT 8:35 PM PDT
Nautical Twilight 4:36 AM PDT 9:11 PM PDT
Astronomical Twilight 3:57 AM PDT 9:50 PM PDT
Moon 6:41 AM PDT (6/14) 9:14 PM PDT (6/14)
Length of Visible Light 15h 22m
Length of Day
14h 24m
New Moon, 1% of the Moon is Illuminated
Jun 14
New Moon
Jun 20
First Quarter
Jun 27
Full
Jul 6
Last Quarter
Jul 12
New

Hourly Weather History & Observations

Time (PDT) Temp. Dew Point Humidity Pressure Visibility Wind Dir Wind Speed Gust Speed Precip Events Conditions
12:51 AM 61.0 °F 57.9 °F 90% 29.83 in 9.0 mi SSW 5.8 mph - N/A   Overcast
1:51 AM 60.1 °F 57.0 °F 90% 29.82 in 8.0 mi Calm Calm - N/A   Overcast
2:51 AM 60.1 °F 57.0 °F 90% 29.82 in 8.0 mi Calm Calm - N/A   Overcast
3:51 AM 60.1 °F 55.9 °F 86% 29.80 in 10.0 mi North 3.5 mph - N/A   Mostly Cloudy
4:00 AM 59.0 °F 55.9 °F 90% 29.79 in 10.0 mi Calm Calm - N/A   Scattered Clouds
4:51 AM 60.1 °F 57.0 °F 90% 29.81 in 6.0 mi South 4.6 mph - N/A   Scattered Clouds
4:56 AM 60.1 °F 57.9 °F 93% 29.81 in 6.0 mi South 4.6 mph - N/A   Mostly Cloudy
5:51 AM 61.0 °F 57.9 °F 90% 29.82 in 5.0 mi Calm Calm - N/A   Overcast
6:51 AM 61.0 °F 57.9 °F 90% 29.82 in 4.0 mi Calm Calm - N/A   Overcast
7:51 AM 62.1 °F 57.9 °F 86% 29.82 in 4.0 mi WNW 3.5 mph - N/A   Overcast
8:51 AM 63.0 °F 59.0 °F 87% 29.85 in 3.0 mi SW 8.1 mph - N/A   Overcast
9:51 AM 63.0 °F 59.0 °F 87% 29.88 in 4.0 mi West 5.8 mph - N/A   Overcast
10:26 AM 64.9 °F 57.9 °F 78% 29.88 in 4.0 mi Calm Calm - N/A   Haze
10:51 AM 66.0 °F 57.9 °F 75% 29.88 in 5.0 mi Variable 6.9 mph - N/A   Haze
11:11 AM 66.0 °F 57.9 °F 75% 29.89 in 6.0 mi SW 8.1 mph - N/A   Haze
11:51 AM 68.0 °F 57.9 °F 70% 29.89 in 6.0 mi Variable 3.5 mph - N/A   Haze
12:51 PM 70.0 °F 57.9 °F 65% 29.87 in 7.0 mi Variable 5.8 mph - N/A   Clear
1:51 PM 73.0 °F 59.0 °F 61% 29.84 in 8.0 mi SSW 9.2 mph - N/A   Clear
2:51 PM 75.0 °F 57.9 °F 55% 29.79 in 10.0 mi SSW 5.8 mph - N/A   Clear
3:51 PM 72.0 °F 59.0 °F 64% 29.76 in 10.0 mi SW 10.4 mph - N/A   Clear
4:51 PM 70.0 °F 59.0 °F 68% 29.75 in 10.0 mi WSW 9.2 mph - N/A   Clear
5:51 PM 68.0 °F 60.1 °F 76% 29.75 in 10.0 mi SW 15.0 mph - N/A   Clear
6:16 PM 66.0 °F 59.0 °F 78% 29.76 in 10.0 mi WSW 15.0 mph 20.7 mph N/A   Mostly Cloudy
6:51 PM 64.0 °F 59.0 °F 84% 29.77 in 10.0 mi West 13.8 mph 20.7 mph N/A   Scattered Clouds
7:51 PM 63.0 °F 59.0 °F 87% 29.79 in 10.0 mi WSW 10.4 mph 16.1 mph N/A   Scattered Clouds
8:51 PM 63.0 °F 59.0 °F 87% 29.80 in 10.0 mi South 3.5 mph - N/A   Mostly Cloudy
9:00 PM 63.0 °F 59.0 °F 87% 29.81 in 10.0 mi South 5.8 mph - N/A   Scattered Clouds
9:51 PM 63.0 °F 59.0 °F 87% 29.81 in 10.0 mi SSW 4.6 mph - N/A   Clear
10:43 PM 62.1 °F 57.9 °F 86% 29.83 in 10.0 mi SSW 5.8 mph - N/A   Partly Cloudy
10:51 PM 62.1 °F 57.9 °F 86% 29.82 in 10.0 mi WSW 4.6 mph - N/A   Mostly Cloudy
11:13 PM 62.1 °F 57.9 °F 86% 29.81 in 9.0 mi Calm Calm - N/A   Scattered Clouds
11:39 PM 62.1 °F 57.9 °F 86% 29.81 in 10.0 mi Calm Calm - N/A   Mostly Cloudy
11:51 PM 62.1 °F 59.0 °F 90% 29.81 in 9.0 mi Calm Calm - N/A   Overcast